Location: Unspecified
(22.6800°N, 112.2000°E)
Time: 15:45:44
(UTC+08:00)

S-56A Canister/Altair - Pass Details

Date: 30 July 2021
Orbit: 632 x 2500 km, 38.9° (Epoch: 24 September)

Event Time Altitude Azimuth Distance (km) Brightness Sun altitude
Rises 18:23:26 0° 287° (WNW) 6,025 14.5 10.1°
Reaches altitude 10° 18:27:46 10° 295° (WNW) 5,116 14.3 9.2°
Maximum altitude 18:41:37 40° 0° (N) 3,220 11.0 6.1°
Drops below altitude 10° 18:53:52 10° 67° (ENE) 4,545 11.0 3.4°
Sets 18:57:27 0° 75° (ENE) 5,316 11.3 2.6°
